カタログに戻る

STARLINK-11590

運用中通信VLEO
NORAD 63112·PAYLOAD·🇺🇸 United States

打ち上げ Feb 27, 2025 から Cape Canaveral Space Force Station

Loading…

次のパス (今後24時間)

TLE

最新Source: CelesTrak SupGP

元期: Sep 15, 2026, 03:14 UTC

1 63112C 25039J   26258.13520833  .00001898  00000+0  14746-4 0  2589
2 63112  43.0005 175.3657 0001437 263.2406 162.5354 15.70833310    17

AllMySatでSTARLINK-11590をリアルタイム追跡

Download on the App Store